This demonstration page uses our WeatherBlox Daily Observations layout. Learn more.

Left ArrowRight Arrow

31.31129, -92.44514

Hourly Observations for October 13, 2015

Temp ( °F °C ) Dew Point ( °F °C ) Humidity (%) Winds ( mph kmh ) Pressure ( in mb ) Visibility ( mi km ) Precip ( " mm )
12:53 am 00:53 Clear 74 23.3 70 21.1 88 88 SW 10 17 29.84 1011 10 16 0.00 0.00
1:53 am 01:53 Partly Cloudy 73 22.8 70 21.1 90 90 SW 5 7 29.85 1011 10 16 0.00 0.00
2:05 am 02:05 Mostly Cloudy 73 22.8 70 21.1 90 90 SW 5 7 29.83 1010 10 16 0.00 0.00
2:53 am 02:53 Cloudy 73 22.8 70 21.1 90 90 WSW 5 7 29.85 1011 10 16 0.00 0.00
3:15 am 03:15 Cloudy 74 23.3 70 21.1 88 88 WSW 3 6 29.83 1010 10 16 0.00 0.00
3:53 am 03:53 Cloudy 74 23.3 71 21.7 91 91 WSW 5 7 29.85 1011 9 14 0.00 0.00
4:19 am 04:19 Cloudy 74 23.3 71 21.7 91 91 W 3 6 29.85 1011 9 14 0.00 0.00
4:53 am 04:53 Cloudy 75 23.9 71 21.7 88 88 W 3 6 29.86 1011 8 13 0.00 0.00
5:06 am 05:06 Cloudy 75 23.9 71 21.7 88 88 W 3 6 29.85 1011 7 11 0.00 0.00
5:53 am 05:53 Mostly Cloudy 75 23.9 72 22.2 90 90 WNW 6 9 29.87 1012 7 11 0.00 0.00
6:13 am 06:13 Mostly Cloudy 75 23.9 71 21.7 88 88 WNW 5 7 29.88 1012 7 11 0.00 0.00
6:53 am 06:53 Mostly Cloudy with Mist and Fog 74 23.3 71 21.7 91 91 NW 6 9 29.89 1012 6 10 0.00 0.00
7:53 am 07:53 Partly Cloudy with Mist and Fog 73 22.8 70 21.1 90 90 N 5 7 29.91 1013 6 10 0.00 0.00
8:53 am 08:53 Mostly Cloudy 78 25.6 63 17.2 60 60 NE 6 9 29.93 1014 10 16 0.00 0.00
9:53 am 09:53 Sunny 81 27.2 52 11.1 37 37 NE 9 15 29.96 1014 10 16 0.00 0.00
10:53 am 10:53 Sunny 84 28.9 44 6.7 25 25 ENE 9 15 29.96 1015 10 16 0.00 0.00
11:53 am 11:53 Sunny 87 30.6 40 4.4 19 19 NNE 8 13 29.96 1015 10 16 0.00 0.00
12:53 pm 12:53 Sunny 88 31.1 38 3.3 17 17 VRB 3 6 29.95 1014 10 16 0.00 0.00
1:22 pm 13:22 Mostly Sunny 89 31.7 40 4.4 18 18 NNW 10 17 29.94 1014 9 14 0.00 0.00
1:53 pm 13:53 Sunny 90 32.2 39 3.9 17 17 NW 8 13 29.93 1013 10 16 0.00 0.00
1:54 pm 13:54 Sunny 90 32.2 39 3.9 17 17 NW 10 17 29.91 1013 10 16 0.00 0.00
2:53 pm 14:53 Sunny 90 32.2 34 1.1 14 14 WNW 10 17 29.91 1013 10 16 0.00 0.00
3:53 pm 15:53 Sunny 90 32.2 35 1.7 14 14 N 8 13 29.90 1013 10 16 0.00 0.00
4:53 pm 16:53 Sunny 90 32.2 33 0.6 13 13 NNW 10 17 29.89 1012 10 16 0.00 0.00
5:53 pm 17:53 Sunny 87 30.6 34 1.1 15 15 NW 9 15 29.89 1012 10 16 0.00 0.00
6:53 pm 18:53 Clear 76 24.4 38 3.3 25 25 NNW 6 9 29.90 1013 10 16 0.00 0.00
7:53 pm 19:53 Clear 76 24.4 41 5 29 29 NNW 5 7 29.92 1013 10 16 0.00 0.00
8:53 pm 20:53 Clear 68 20 40 4.4 36 36 NW 3 6 29.95 1014 10 16 0.00 0.00
9:53 pm 21:53 Clear 64 17.8 41 5 43 43 Calm 29.97 1015 10 16 0.00 0.00
10:53 pm 22:53 Clear 62 16.7 45 7.2 54 54 Calm 29.97 1015 10 16 0.00 0.00
11:53 pm 23:53 Hazy 59 15 46 7.8 62 62 Calm 29.98 1015 6 10 0.00 0.00

Powered by AerisWeather